CW5066 Weather Reports


Display with metric or nautical units.
time (UTC)temp
F
wind
direction
speed
MPH
gust
MPH
rain 1hr
in
rain 24hr
in
rain mn
in
humidity
%
barometer
mb
20260503184516 54 0 8.0 16.0 0.00 0.00 0.00 23 1021.3
20260503183536 52 68 9.0 18.0 0.00 0.00 0.00 25 1020.7
20260503182516 51 0 11.0 24.0 0.00 0.00 0.00 23 1020.2
20260503181516 51 0 10.0 19.0 0.00 0.00 0.00 25 1020.2
20260503180515 52 0 7.0 18.0 0.00 0.00 0.00 24 1021.2
20260503175516 50 0 6.0 14.0 0.00 0.00 0.00 27 1020.9
20260503174515 50 0 7.0 15.0 0.00 0.00 0.00 25 1021.1
20260503173516 50 0 7.0 16.0 0.00 0.00 0.00 29 1021.5
20260503172515 49 0 5.0 13.0 0.00 0.00 0.00 30 1021.5
20260503171516 48 0 6.0 14.0 0.00 0.00 0.00 31 1021.1
20260503170516 48 0 6.0 14.0 0.00 0.00 0.00 31 1021.0
20260503150517 42 113 5.0 9.0 0.00 0.00 0.00 39 1020.8
20260503130517 39 0.0 3.0 0.00 0.00 0.00 41 1023.2
20260503110536 41 315 4.0 12.0 0.00 0.00 0.00 38 1024.2
20260503081516 41 0.0 2.0 0.00 0.00 0.00 42 1024.8
20260503080536 41 0.0 2.0 0.00 0.00 0.00 42 1025.1
20260503072516 42 45 2.0 3.0 0.00 0.00 0.00 40 1024.9
20260503071516 42 45 2.0 4.0 0.00 0.00 0.00 40 1025.1
20260503070536 42 45 2.0 4.0 0.00 0.00 0.00 40 1025.1
20260503054516 43 45 3.0 6.0 0.00 0.00 0.00 36 1025.4
20260503053516 43 23 2.0 3.0 0.00 0.00 0.00 32 1025.3
20260503052516 43 45 2.0 4.0 0.00 0.00 0.00 31 1025.3
20260503051516 43 0.0 2.0 0.00 0.00 0.00 21 1023.8
20260503050516 43 0.0 2.0 0.00 0.00 0.00 20 1023.7
20260503045516 42 158 1.0 2.0 0.00 0.00 0.00 22 1023.9
20260503044516 42 158 3.0 4.0 0.00 0.00 0.00 22 1022.6
20260503043516 41 158 3.0 5.0 0.00 0.00 0.00 23 1022.7
20260503042516 40 158 3.0 5.0 0.00 0.00 0.00 24 1022.7
20260503041536 41 158 3.0 6.0 0.00 0.00 0.00 25 1022.1
20260503040516 41 180 2.0 3.0 0.00 0.00 0.00 23 1022.2
20260503035516 41 203 3.0 4.0 0.00 0.00 0.00 22 1022.2
20260503034516 42 203 2.0 2.0 0.00 0.00 0.00 21 1022.3
20260503033518 43 203 1.0 2.0 0.00 0.00 0.00 20 1022.3
20260503032516 42 203 1.0 2.0 0.00 0.00 0.00 21 1022.3
20260503031516 43 0.0 0.0 0.00 0.00 0.00 20 1022.3
20260503030516 44 0.0 1.0 0.00 0.00 0.00 20 1022.3
20260503025516 44 0.0 0.0 0.00 0.00 0.00 20 1022.3
20260503024516 45 203 1.0 2.0 0.00 0.00 0.00 19 1021.7
20260503023536 45 203 1.0 3.0 0.00 0.00 0.00 20 1022.2
20260503022516 46 203 1.0 2.0 0.00 0.00 0.00 22 1022.3
20260503021516 47 0.0 2.0 0.00 0.00 0.00 22 1022.4
20260503020536 49 0.0 2.0 0.00 0.00 0.00 21 1023.1
20260503015516 51 0.0 2.0 0.00 0.00 0.00 21 1023.5
20260503014536 53 0.0 1.0 0.00 0.00 0.00 20 1023.6
20260503013515 55 0.0 2.0 0.00 0.00 0.00 19 1024.2
20260503012516 55 0.0 2.0 0.00 0.00 0.00 20 1024.2
20260503011516 56 203 1.0 4.0 0.00 0.00 0.00 19 1024.2
20260503010515 56 203 2.0 6.0 0.00 0.00 0.00 19 1024.1
20260503005515 56 203 2.0 5.0 0.00 0.00 0.00 20 1024.1
20260503004515 55 203 2.0 6.0 0.00 0.00 0.00 20 1023.6
20260503003515 54 203 1.0 4.0 0.00 0.00 0.00 22 1023.7
20260503002516 52 203 1.0 3.0 0.00 0.00 0.00 24 1023.2
20260503001535 52 225 2.0 6.0 0.00 0.00 0.00 24 1023.8
20260503000515 52 203 2.0 7.0 0.00 0.00 0.00 23 1023.9
20260502235515 54 203 2.0 8.0 0.00 0.00 0.00 22 1023.8
20260502234515 55 315 1.0 3.0 0.00 0.00 0.00 21 1023.9
20260502233515 57 0.0 4.0 0.00 0.00 0.00 21 1024.8
20260502232515 59 135 1.0 3.0 0.00 0.00 0.00 20 1025.4
20260502231515 59 180 2.0 8.0 0.00 0.00 0.00 22 1026.2
20260502230515 59 180 3.0 8.0 0.00 0.00 0.00 22 1026.3
20260502225515 58 203 3.0 8.0 0.00 0.00 0.00 23 1025.5
20260502224515 56 180 2.0 8.0 0.00 0.00 0.00 22 1025.2
20260502223517 55 158 1.0 6.0 0.00 0.00 0.00 23 1024.6
20260502222557 55 180 2.0 7.0 0.00 0.00 0.00 23 1025.2
20260502221517 56 158 1.0 6.0 0.00 0.00 0.00 24 1025.4
20260502220537 57 203 4.0 10.0 0.00 0.00 0.00 22 1025.4
20260502215517 56 180 3.0 9.0 0.00 0.00 0.00 23 1025.7
20260502214517 56 158 3.0 10.0 0.00 0.00 0.00 23 1026.0
20260502213517 57 180 4.0 12.0 0.00 0.00 0.00 23 1026.2
20260502212517 56 180 1.0 6.0 0.00 0.00 0.00 28 1026.5
20260502211517 57 158 2.0 8.0 0.00 0.00 0.00 22 1026.5
20260502210517 58 135 2.0 6.0 0.00 0.00 0.00 23 1027.5
20260502205517 55 225 3.0 12.0 0.00 0.00 0.00 30 1026.3
20260502204517 55 338 1.0 7.0 0.00 0.00 0.00 24 1026.1
20260502203517 55 90 3.0 8.0 0.00 0.00 0.00 22 1026.0
20260502202517 56 225 2.0 4.0 0.00 0.00 0.00 23 1026.9
20260502201517 56 135 2.0 11.0 0.00 0.01 0.00 28 1027.1
20260502200517 54 158 3.0 8.0 0.00 0.01 0.00 28 1026.5
20260502195517 54 158 3.0 9.0 0.00 0.02 0.00 25 1026.5
20260502194516 52 135 2.0 9.0 0.00 0.02 0.00 29 1026.1
20260502193516 51 0 4.0 9.0 0.00 0.04 0.00 23 1026.0
20260502192516 51 0 1.0 4.0 0.00 0.05 0.00 22 1026.0
20260502191516 52 0.0 2.0 0.00 0.06 0.00 22 1026.2
20260502190517 51 248 1.0 2.0 0.00 0.08 0.00 22 1026.6
20260502185537 50 338 1.0 3.0 0.00 0.09 0.00 22 1025.9